Regional Weather Roundup
Issued by NWS State College, PA

Home | Current Version | Previous Version | Text Only | Print | Product List | Glossary On
Versions: 1 2 3 4 5 6 7 8 9 10 11 12 13 14 15 16 17 18 19 20 21 22 23 24 25 26 27 28 29 30 31 32 33 34 35 36 37 38 39 40 41 42 43 44 45 46 47 48 49 50
000
ASUS41 KCTP 021910
RWRCTP

REGIONAL WEATHER ROUNDUP
NATIONAL WEATHER SERVICE STATE COLLEGE PA
300 PM EDT SUN AUG 02 2015

Note: "fair" indicates few or no clouds below 12,000 feet with no
significant weather and/or obstructions to visibility.

* = STATION THAT DOES NOT REPORT PRECIPITATION /E.G. RAIN...SNOW...ETC/
    THUNDER OR FOG.

PAZ002>004-007>009-013>016-020>023-029>032-022000-
WESTERN PENNSYLVANIA

CITY           SKY/WX    TMP DP  RH WIND       PRES   REMARKS
ERIE           SUNNY     86  61  42 SW10      29.84F
MEADVILLE      SUNNY     84  56  38 W10       29.91F
FRANKLIN*      SUNNY     82  57  42 W9        29.94F
NEW CASTLE     FAIR      88  64  44 SW9       29.91F
BEAVER COUNTY  NOT AVBL
BUTLER*        MOSUNNY   84  61  45 W7        29.95F
PITTSBURGH INT MOSUNNY   86  60  41 SW13G18   29.94F
PITTSBURGH     MOSUNNY   85  58  39 W12G17    29.94F
INDIANA*       MOSUNNY   82  63  51 W8G14     29.98F
LATROBE        MOSUNNY   82  63  51 SW12      29.96F
WASHINGTON CO* NOT AVBL
$$

PAZ004>006-010>012-017>019-024>028-033>037-041-042-045-046-049>053-022000-
CENTRAL PENNSYLVANIA

CITY           SKY/WX    TMP DP  RH WIND       PRES   REMARKS
BRADFORD       SUNNY     78  49  35 VRB5      29.94F
DUBOIS         SUNNY     82  58  43 W9G17     29.94F
CLEARFIELD     MOSUNNY   83  58  42 SW7       29.95S
JOHNSTOWN      PTSUNNY   77  58  51 W12       30.00S
ALTOONA        MOSUNNY   83  61  47 VRB6      29.97S
STATE COLLEGE  PTSUNNY   79  63  57 SW10      29.94F
WILLIAMSPORT   MOSUNNY   87  56  34 W9        29.89S
SELINSGROVE    MOSUNNY   86  61  42 W7        29.91F
FT INDIANTOWN  MOSUNNY   84  59  42 S5        29.92S
CAPITAL CITY   CLOUDY    87  56  34 S10       29.92S
HARRISBURG     PTSUNNY   87  58  37 SW9       29.91F
YORK           MOSUNNY   84  59  42 SW6       29.94S
$$

PAZ038>040-043-044-047-048-054-055-060>062-067>071-022000-
EASTERN PENNSYLVANIA

CITY           SKY/WX    TMP DP  RH WIND       PRES   REMARKS
SCRANTON       MOSUNNY   85  54  34 SW13      29.92S
MOUNT POCONO   PTSUNNY   76  54  46 SW10G21   29.98R
ALLENTOWN      MOSUNNY   85  58  39 SW9G16    29.92S
QUAKERTOWN*    PTCLDY    86  55  35 SW10      29.94S
READING        PTSUNNY   86  56  35 SW7       29.92S
LANCASTER      PTSUNNY   82  56  40 SW7       29.93S
COATESVILLE    CLEAR     82  59  44 SW6       29.96S
POTTSTOWN      PTSUNNY   85  55  35 SW8       29.95S
BLUE BELL      SUNNY     84  55  37 SW6       29.92S
DOYLESTOWN     MOSUNNY   84  52  33 SW8       29.92S
WILLOW GROVE   NOT AVBL
NORTH PHILA    SUNNY     90  45  21 CALM      29.92F
PHILADELPHIA   FAIR      89  51  27 W9        29.92S
$$



USA.gov is the U.S. government's official web portal to all federal, state and local government web resources and services.